Regional Weather Roundup
Issued by NWS Sterling, VA

Home | Current Version | Previous Version | Graphics & Text | Print | Product List | Glossary Off
Versions: 1 2 3 4 5 6 7 8 9 10 11 12 13 14 15 16 17 18 19 20 21 22 23 24 25 26 27 28 29 30 31 32 33 34 35 36 37 38 39 40 41 42 43 44 45 46 47 48 49 50

000
ASUS41 KLWX 022110
RWRLWX

REGIONAL WEATHER ROUNDUP
NATIONAL WEATHER SERVICE BALTIMORE MD/WASHINGTON DC
500 PM EDT THU JUL 02 2015

Note: "FAIR" indicates few or no clouds below 12,000 feet
with no significant weather and/or obstructions to visibility.
 TC=TEMPERATURE CELSIUS

 * =Non NWS site. Station does not report precipitation (e.g. rain,
    snow, etc.), thunder, or fog.

DCZ001-MDZ009-015-VAZ040>042-051-053>054-022200-
WASHINGTON METRO

CITY           SKY/WX    TMP DP  RH WIND       PRES   REMARKS
WASHINGTON NAT CLOUDY    77  66  68 NW5       29.90S
DULLES         CLOUDY    74  61  63 N3        29.90F
ANDREWS AFB    PTSUNNY   72  67  83 E3        29.89F
FT BELVOIR     CLOUDY    74  65  74 VRB2      29.89F
QUANTICO       CLOUDY    74  66  76 NW6       29.90F
COLLEGE PARK*  CLOUDY    73  66  78 CALM      29.88F
LEESBURG*      CLOUDY    73  68  83 W6        29.91F
GAITHERSBURG*  CLOUDY    72  64  78 CALM      29.94F

$$

MDZ006>007-011-014-022200-
BALTIMORE METRO

CITY           SKY/WX    TMP DP  RH WIND       PRES   REMARKS
BWI AIRPORT    CLOUDY    73  63  70 SE7       29.89F
MD SCIENCE CTR   N/A     75  62  64 MISG      29.89F
MARTIN STATE   CLOUDY    73  68  83 CALM      29.91F
ANNAPOLIS      CLOUDY    73  64  73 NE5       29.89F
FORT MEADE*    CLOUDY    70  66  88 SE5       29.91F

$$

MDZ012-015-019>023-022200-
MARYLAND EASTERN SHORE

CITY           SKY/WX    TMP DP  RH WIND       PRES   REMARKS
OCEAN CITY     CLOUDY    72  68  87 VRB7      29.86R FOG
SALISBURY      CLOUDY    71  68  90 N9        29.87R
BAY BRIDGE AP*   N/A     72  64  78 N3        29.89F
CAMBRIDGE*     CLOUDY    72  64  78 NE3       29.87F
EASTON*        PTSUNNY   72  72 100 N6        29.93S FOG

$$

MDZ017>025-022200-
SOUTHERN MARYLAND

CITY           SKY/WX    TMP DP  RH WIND       PRES   REMARKS
PATUXENT RIVER CLOUDY    73  67  81 N8        29.87S
ST INIGOES     CLOUDY    75  67  76 N5        29.87R
LEONARDTOWN*   CLOUDY    72  63  73 CALM      29.90S

$$

MDZ003>005-022200-
NORTH CENTRAL MARYLAND

CITY           SKY/WX    TMP DP  RH WIND       PRES   REMARKS
FREDERICK*     PTSUNNY   73  68  83 CALM      29.93F FOG
HAGERSTOWN APT CLOUDY    76  63  64 VRB5      29.91S
WESTMINSTER*   CLOUDY    73  66  78 NW3       29.91F

$$

MDZ501>502-022200-
WESTERN MARYLAND

CITY           SKY/WX    TMP DP  RH WIND       PRES   REMARKS
OAKLAND*       CLOUDY    64  64 100 W3        30.00F
CUMBERLAND*    CLOUDY    77  61  57 S3        29.94F

$$

VAZ025>031-022200-
SHENANDOAH VALLEY

CITY           SKY/WX    TMP DP  RH WIND       PRES   REMARKS
WINCHESTER*    CLOUDY    73  66  78 S5        29.92S
FRONT ROYAL*   FAIR      72  66  83 S3        29.91F
LURAY*         FAIR      73  64  73 CALM      29.93F
NEW MARKET*    FAIR      73  63  72 CALM      29.91F
STAUNTON*      CLOUDY    73  63  69 CALM      29.95F
WAYNESBORO*    MOCLDY    69  63  81 CALM      29.95F

$$

WVZ021-048>050-054>055-022200-
EASTERN WEST VIRGINIA PANHANDLE

CITY           SKY/WX    TMP DP  RH WIND       PRES   REMARKS
MARTINSBURG    CLOUDY    74  65  73 SE6       29.91F
PETERSBURG*    CLOUDY    75  60  58 CALM      29.92F

$$

VAZ036>039-050-022200-
CENTRAL FOOTHILLS

CITY           SKY/WX    TMP DP  RH WIND       PRES   REMARKS
CHARLOTTESVILL CLOUDY    74  65  73 CALM      29.91F
CULPEPER*      CLOUDY    73  65  75 CALM      29.91F
ORANGE*        CLOUDY    73  64  73 NW3       29.92F
GORDONSVILLE*  CLOUDY    73  64  73 NE3       29.90F
WARRENTON*     CLOUDY    74  66  76 N3        29.90S

$$

VAZ055>057-022200-
NORTH AND CENTRAL PIEDMONT

CITY           SKY/WX    TMP DP  RH WIND       PRES   REMARKS
FREDERICKSBRG* CLOUDY    76  67  72 N7        29.89S
STAFFORD*      CLOUDY    72  65  78 NW5       29.94F

$$

NCZ024-NYZ072-PAZ021-071-VAZ022-071-022200-
OTHER REGIONAL OBSERVATIONS

CITY           SKY/WX    TMP DP  RH WIND       PRES   REMARKS
NEW YORK CITY  CLOUDY    77  60  55 CALM      29.89F
PHILADELPHIA   CLOUDY    75  62  64 S3        29.88F
PITTSBURGH     CLOUDY    77  54  44 VRB6      29.93S
ROANOKE        CLOUDY    73  61  65 NW6       29.95F
RICHMOND       CLOUDY    79  69  71 N12       29.87R
RALEIGH        PTSUNNY   83  67  58 SW10      29.87F

$$

ANZ530>537-022200-
MARINE OBSERVATIONS

STATION/POSITION TIME  TEMP    WIND        PRES
                       AIR SEA DIR/SP/G
                 (UTC) (F)     (DEG/KT/KT) (MB)
THOMAS PT LIGHT  2000   71 76   20/  7/  8 1012.9R
BALT KEY BRIDGE  2000   73      80/  5/  6 1012.4S
COVE POINT       2000   72      50/ 12/ 14 1012.4F
LEWISETTA        2000   75 80   20/  7/ 10 1011.4R
SOLOMONS ISLAND  2000      79                N/A
PINEY POINT      2000           50/  8/ 10   N/A

$$




USA.gov is the U.S. government's official web portal to all federal, state and local government web resources and services.